Regional Weather Roundup
Issued by NWS Albany, NY

Home | Current Version | Previous Version | Graphics & Text | Print | Product List | Glossary On
Versions: 1 2 3 4 5 6 7 8 9 10 11 12 13 14 15 16 17 18 19 20 21 22 23 24 25 26 27 28 29 30 31 32 33 34 35 36 37 38 39 40 41 42 43 44 45 46 47 48 49
000
ASUS41 KALY 020810
RWRALY

NEW YORK STATE HOURLY WEATHER ROUNDUP
NATIONAL WEATHER SERVICE ALBANY NY
400 AM EDT WED SEP 02 2015

NOTE: "FAIR" INDICATES FEW OR NO CLOUDS BELOW 12,000 FEET WITH NO
SIGNIFICANT WEATHER AND/OR NO OBSTRUCTIONS TO VISIBILITY.

NYZ032-033-038>043-046>054-057>066-NYZ062>081-020900-
EAST


CITY           SKY/WX    TMP DP  RH WIND       PRES   REMARKS
ALBANY         CLEAR     66  62  87 SW3       30.03S
GLENS FALLS    FOG       58  56  93 N3        30.02S VSB 1/4
POUGHKEEPSIE   CLEAR     62  60  93 CALM      30.02F
NEWBURGH       CLEAR     64  63  94 CALM      30.05S
MONTGOMERY     PTCLDY    61  60  97 CALM      30.03F FOG
WHITE PLAINS   CLEAR     67  64  90 CALM      30.03F
ISLIP          CLEAR     68  66  93 CALM      30.02S
NEW YORK CITY  CLEAR     76  65  68 CALM      30.02F
CENTRAL PARK   CLEAR     75  64  68 CALM      30.05F
$$

NYZ005>009-017-018-044>046-055-056-020900-
CENTRAL


CITY           SKY/WX    TMP DP  RH WIND       PRES   REMARKS
FULTON         FOG       62  60  93 S3        30.03F VSB 1/2
SYRACUSE       PTCLDY    63  63 100 CALM      30.03S FOG
ROME           CLEAR     60  60 100 CALM      30.05F FOG
ELMIRA         CLOUDY    64  64 100 CALM      30.06S FOG
BINGHAMTON     CLEAR     64  64 100 CALM      30.08S FOG
MONTICELLO     CLEAR     61  59  94 CALM      30.09F
$$

NYZ026>034-041>043-020900-
NORTH


CITY           SKY/WX    TMP DP  RH WIND       PRES   REMARKS
WATERTOWN      CLEAR     60  59  96 SE3       30.02S FOG
FORT DRUM      NOT AVBL
MASSENA        CLEAR     66  63  90 SW6       30.00S FOG
SARANAC LAKE   FOG       60  59  96 CALM      30.06S VSB 1/4
PLATTSBURGH    CLEAR     61  60  97 CALM      29.99F
$$

NYZ001>004-010>016-019>021-020900-
WEST


CITY           SKY/WX    TMP DP  RH WIND       PRES   REMARKS
NIAGARA FALLS  CLEAR     66  64  93 S3        30.03F FOG
BUFFALO        CLEAR     68  65  90 S6        30.05F FOG
DUNKIRK        CLEAR     66  63  90 S3        30.06F
JAMESTOWN      MOCLDY    63  61  94 S3        30.11F VSB 1/4
WELLSVILLE     FOG       63  62  97 CALM      30.14S VSB 1/4
ROCHESTER      MOCLDY    66  64  93 SW5       30.04F FOG
PENN YAN       CLEAR     67  65  93 SW3       30.07S FOG
$$

             KEY
       WCI = WIND CHILL INDEX
       VSB = VISIBILITY
       HX  = HEAT INDEX
$$


USA.gov is the U.S. government's official web portal to all federal, state and local government web resources and services.